Regional Weather Roundup
Issued by NWS

Home | Current Version | Previous Version | Text Only | Print | Product List | Glossary Off
Versions: 1 2 3 4 5 6 7 8 9 10 11 12 13 14 15 16 17 18 19 20 21 22 23 24 25 26 27 28 29 30 31 32 33 34 35 36 37 38 39 40 41 42 43 44 45 46 47 48 49 50

000
ASUS43 KFSD 020810
RWRSD

WEATHER ROUNDUP FOR SOUTH DAKOTA
NATIONAL WEATHER SERVICE SIOUX FALLS SD
300 AM CDT WED SEP 02 2015

NOTE: "FAIR" INDICATES FEW OR NO CLOUDS BELOW 12,000 FEET WITH NO
SIGNIFICANT WEATHER AND/OR OBSTRUCTIONS TO VISIBILITY.


SDZ001>005-009-010-012>017-020900-
NORTHWEST AND NORTH CENTRAL SOUTH DAKOTA

CITY           SKY/WX    TMP DP  RH WIND       PRES   REMARKS
BUFFALO          N/A     66  54  65 SE5       29.79R
FAITH            N/A     69  53  56 S6        29.82S
MOBRIDGE       CLEAR     66  66 100 E7        29.77S
$$

SDZ012>016-024>037-041>051-057-063-072>074-020900-
SOUTHWEST AND SOUTH CENTRAL SOUTH DAKOTA

CITY           SKY/WX    TMP DP  RH WIND       PRES   REMARKS
RAPID CTY ARPT CLEAR     57  51  80 NW7       29.86F
PIERRE         FOG       62  62 100 CALM      29.76S VSB 1/4
CUSTER         PTCLDY    55  42  61 NW5       30.02F
ELLSWORTH AFB  CLEAR     65  51  60 W7        29.86F
PHILIP         CLEAR     58  56  93 W9        29.80S
PINE RIDGE     CLEAR     64  47  53 S8        29.88F
WINNER           N/A     74  62  66 S14       29.79F
$$

SDZ004>011-016>023-039-040-020900-
NORTHEAST SOUTH DAKOTA

CITY           SKY/WX    TMP DP  RH WIND       PRES   REMARKS
ABERDEEN       CLEAR     64  62  93 SE6       29.81F
WATERTOWN      CLEAR     67  61  81 SE12      29.86F
BROOKINGS      CLEAR     64  61  88 E8        29.88F
SISSETON         N/A     64  62  93 S3        29.84S
$$

SDZ017-020-022-023-036>040-048>070-020900-
SOUTHEAST SOUTH DAKOTA

CITY           SKY/WX    TMP DP  RH WIND       PRES   REMARKS
SIOUX FALLS    CLEAR     71  67  87 S7        29.84F
HURON          CLEAR     69  69 100 E9        29.80F FOG
CHAMBERLAIN    CLEAR     66  65  99 SE6       29.79S FOG
MITCHELL       CLEAR     68  67  96 S5        29.81S FOG
YANKTON        CLEAR     70  64  83 S5        29.82S
$$

ABBREVIATIONS USED IN REMARKS
   TC - TEMPERATURE IN CELSIUS
  WCI - WIND CHILL INDEX
   HX - HEAT INDEX
  VSB - VISIBILITY




USA.gov is the U.S. government's official web portal to all federal, state and local government web resources and services.